Dewpoint
17 16 17 19 29 28 30 37 34 40 41 44 51 49 51 53 54 56 57 58 60 62 64 64 64 65 66 66 68 68 67 67
15 19 20 20 28 27 28 26 30 39 39 40 43 48 50 50 51 55 56 58 60 62 63 64 64 65 67 66 67 69 69 68
19 18 16 21 22 25 24 30 29 33 37 43 43 47 49 50 51 53 57 56 60 63 64 63 65 66 66 67 66 67 69 69
14 19 24 22 20 21 19 23 36 36 36 43 46 50 49 51 52 54 57 59 62 62 63 64 65 67 67 68 67 67 67 67
15 16 20 28 29 28 27 33 34 32 32 43 46 49 50 52 56 58 58 61 62 62 62 63 64 66 67 65 66 67 66 65
16 16 22 32 35 35 33 32 34 35 37 41 48 51 54 56 57 58 59 61 61 61 61 62 63 64 65 66 65 66 65 65
20 18 33 30 34 36 32 34 29 31 38 40 48 52 55 56 57 58 59 60 61 61 62 63 63 64 64 65 65 65 66 66
24 29 34 33 32 33 33 36 34 34 36 41 48 51 52 56 57 58 60 60 61 63 65 64 64 64 64 64 64 65 65 65
28 34 33 33 33 34 34 36 35 34 34 44 46 48 51 54 56 57 58 60 61 62 64 64 65 65 64 65 65 65 65 65
32 31 29 33 37 37 34 35 35 34 37 39 41 46 50 53 55 57 58 59 61 62 63 64 64 66 66 66 66 65 64 65
32 30 30 32 38 36 34 33 39 35 38 43 47 46 49 53 54 58 59 62 64 65 64 64 64 65 65 65 65 65 66 66
33 30 26 31 39 39 37 33 42 42 44 44 46 44 46 53 55 55 61 63 65 65 65 65 64 65 64 63 64 64 65 66
35 37 36 37 41 41 33 35 43 45 46 45 45 46 48 53 56 59 62 64 65 65 64 64 64 63 61 60 61 64 66 65
36 34 32 46 41 37 40 44 44 46 47 49 50 52 53 54 57 61 62 63 64 63 62 62 62 61 59 62 63 65 64 63
41 37 44 48 48 50 48 45 47 46 48 51 50 52 53 56 59 59 60 62 63 62 61 61 61 61 61 61 62 64 65 64
44 45 48 50 52 51 51 49 50 51 52 53 51 53 55 56 57 58 60 61 61 61 60 60 61 62 61 61 61 61 63 63
45 47 48 51 52 52 52 52 55 56 57 57 55 56 56 57 57 57 59 59 60 60 60 60 61 61 61 61 61 60 61 61
44 46 43 46 49 55 51 50 53 54 56 58 55 55 55 56 59 58 58 58 60 61 61 61 61 61 61 60 60 60 59 61
44 49 50 50 51 52 51 52 53 56 57 56 56 57 57 58 59 59 59 55 57 61 62 62 61 60 61 59 59 58 58 58
Lifted_Index
1 1 1 0 0 0 0 0 0 1 1 0 -1 -1 -1 -1 -1 -1 -0 -0 -1 -1 -2 -2 -2 -2 -2 -2 -3 -3 -3 -3
1 1 1 1 0 0 -0 -0 0 0 0 -0 -1 -1 -2 -1 -1 -1 -1 -0 -1 -1 -1 -2 -2 -2 -2 -2 -2 -3 -3 -3
0 0 1 0 0 0 -0 -0 -0 0 0 -0 -1 -1 -2 -1 -1 -1 -1 -1 -1 -1 -1 -1 -1 -2 -2 -2 -2 -2 -2 -3
-0 0 0 0 0 0 -0 -0 -0 0 0 0 -0 -1 -1 -2 -1 -1 -1 -1 -1 -1 -1 -1 -1 -2 -2 -2 -2 -2 -2 -2
0 0 0 0 0 0 0 -0 -0 -0 0 -0 -0 -1 -1 -2 -2 -2 -2 -2 -1 -1 -1 -1 -1 -2 -2 -2 -2 -2 -2 -2
1 1 0 0 -0 0 0 -0 -0 -0 -0 -1 -1 -1 -2 -2 -3 -3 -2 -2 -2 -2 -1 -1 -1 -1 -2 -2 -2 -2 -1 -1
1 1 1 0 -0 -0 -0 0 0 -0 -0 -1 -1 -2 -2 -3 -3 -3 -3 -3 -3 -3 -2 -2 -2 -2 -2 -2 -1 -1 -1 -1
1 1 0 0 0 0 0 0 0 0 -0 -1 -2 -2 -3 -3 -4 -4 -4 -4 -3 -3 -3 -3 -2 -2 -2 -2 -1 -1 -1 -1
0 0 0 0 0 0 0 0 0 0 -0 -1 -1 -2 -3 -3 -4 -4 -4 -4 -4 -3 -3 -3 -3 -3 -3 -2 -2 -1 -1 -1
-0 -0 0 0 0 0 0 0 0 -0 -0 -0 -0 -1 -2 -3 -3 -4 -4 -4 -3 -3 -3 -3 -3 -3 -3 -3 -2 -2 -2 -2
-1 -0 -0 -0 -0 -1 -0 -0 -0 -0 -0 -0 0 -0 -1 -3 -3 -3 -4 -4 -4 -3 -3 -3 -3 -3 -3 -3 -3 -2 -2 -2
-1 -1 -0 -0 -0 -1 -1 -0 -0 -0 -0 -1 -1 -1 -2 -3 -3 -4 -4 -5 -4 -4 -3 -3 -3 -3 -3 -2 -2 -2 -3 -2
-1 -0 0 0 -0 -1 -1 -0 -0 -0 -0 -1 -1 -1 -2 -3 -3 -4 -5 -5 -5 -4 -3 -3 -3 -3 -2 -2 -2 -2 -3 -3
-0 -0 0 0 -0 -1 -1 -0 0 0 -0 -1 -1 -1 -2 -2 -3 -4 -5 -6 -5 -4 -3 -3 -3 -2 -2 -1 -1 -2 -2 -2
-1 -0 -0 -0 -0 -1 -1 -0 0 0 -0 -1 -2 -2 -2 -2 -3 -4 -5 -5 -5 -4 -3 -2 -2 -1 -1 -0 -1 -1 -1 -1
-1 -1 -1 -1 -1 -1 -0 -0 -0 -0 -1 -2 -2 -2 -2 -3 -3 -4 -4 -4 -4 -3 -2 -1 -1 -1 -0 0 0 -0 -0 -0
-0 -1 -1 -1 -1 -1 -1 -1 -1 -2 -2 -3 -3 -3 -3 -3 -3 -3 -3 -3 -3 -3 -2 -1 -1 -0 0 1 1 0 -0 -0
-0 -0 -1 -1 -1 -0 -0 -1 -1 -2 -2 -3 -3 -3 -3 -3 -3 -3 -3 -3 -3 -3 -2 -2 -2 -1 -0 0 1 0 -0 -0
0 -0 -1 -1 -0 0 -0 -0 -1 -2 -2 -3 -3 -3 -3 -3 -3 -3 -2 -2 -3 -3 -2 -2 -2 -1 -1 -0 0 1 0 -0